If you wish to contribute or participate in the discussions about articles you are invited to join SKYbrary as a registered user

 Actions

Arvidsjaur Airport

From SKYbrary Wiki

ESNX
Airport
ICAO: ESNX – IATA: AJR
Summary
Name Arvidsjaur Airport
Region Europe
Territory Sweden SE.gif
Location Arvidsjaur, Arvidsjaur
Serving Arvidsjaur
Elevation 379.476 m
1,245 ft
1,245 ft379.476 m
Coordinates 65° 35' 31.79" N, 19° 15' 51.14" E
Runways
Designator Length Width Surface ROPS
12/30 2500 m8,202.1 ft
45 m147.638 ft
ASP /


METAR
Observation ESNX 251150Z 28008KT CAVOK 00/M10 Q1005
Station ARVIDSJAUR
Date/Time 25 March 2019 11:50:00
Wind direction 280°
Wind speed 08 kts
Lowest cloud amount clouds and visibility OK
Temperature 0°C
Dew point
Humidity 46%
QNH 1005 hPa
Weather condition n/a

Arvidsjaur Airport is situated 13 km7.019 nm
13,000 m
42,650.919 ft
from Arvidsjaur town in Sweden.

Climatology

Subarctic climate (Köppen climate classification Dfc)

Maps

Terrain

Loading map...

Airport Layout

Loading map...


Accidents & Serious Incidents at or in vicinity of ESNX

None on SKYbrary